Weather History for KGPH - January, 2013

Change the Weather History Date:

Friday, January 18, 2013

  Actual Average (KMCI) Record (KMCI)
Temperature  
Mean Temperature 44 °F 29 °F  
Max Temperature 55 °F 38 °F 70 °F (1951)
Min Temperature 32 °F 19 °F -12 °F (1940)
Degree Days  
Heating Degree Days 22 36  
Month to date heating degree days 648  
Since 1 July heating degree days 2690  
Cooling Degree Days 0 0  
Month to date cooling degree days 0  
Year to date cooling degree days 0  
Moisture  
Dew Point 30 °F    
Average Humidity 62    
Maximum Humidity 87    
Minimum Humidity 36    
Precipitation  
Precipitation 0.00 in 0.04 in 0.96 in (1907)
Month to date precipitation 0.57  
Year to date precipitation 0.57  
Snow  
Snow 0.00 in 0.10 in 11.80 in (1962)
Month to date snowfall 2.5  
Since 1 July snowfall 8.7  
Snow Depth -    
Sea Level Pressure  
Sea Level Pressure 30.20 in    
Wind  
Wind Speed 8 mph (South)    
Max Wind Speed 26 mph    
Max Gust Speed 38 mph    
Visibility 10 miles    
Events      
T = Trace of Precipitation, MM = Missing Value Source: NWS Daily Summary

Daily Weather History Graph

Daily Weather History Graph

Search for Another Location

Airport or City:

Trip Planner

Search our weather history database for the weather conditions in past years. The results will help you decide how hot, cold, wet, or windy it might be!

Date:

Astronomy

Jan. 18, 2013 Rise Set
Actual Time 7:34 AM CST 5:21 PM CST
Civil Twilight 7:04 AM CST 5:51 PM CST
Nautical Twilight 6:31 AM CST 6:23 PM CST
Astronomical Twilight 5:59 AM CST 6:56 PM CST
Moon 11:15 AM CST (1/18) 12:10 AM CST (1/18)
Length of Visible Light 10h 46m
Length of Day
9h 47m
Waxing Crescent, 47% of the Moon is Illuminated
Jan 18
Waxing Crescent
Jan 18
First Quarter
Jan 26
Full
Feb 3
Last Quarter
Feb 10
New

Hourly Weather History & Observations

Time (CST) Temp. Windchill Dew Point Humidity Pressure Visibility Wind Dir Wind Speed Gust Speed Precip Events Conditions
12:15 AM 32.0 °F 26.4 °F 26.6 °F 80% 30.40 in 10.0 mi SE 5.8 mph - N/A   Clear
12:35 AM 32.0 °F 26.4 °F 26.6 °F 80% 30.40 in 10.0 mi SE 5.8 mph - N/A   Clear
12:55 AM 32.0 °F 26.4 °F 26.6 °F 80% 30.40 in 10.0 mi SE 5.8 mph - N/A   Clear
1:15 AM 32.0 °F 27.5 °F 28.4 °F 87% 30.40 in 10.0 mi SE 4.6 mph - N/A   Clear
1:35 AM 32.0 °F 27.5 °F 28.4 °F 87% 30.40 in 10.0 mi SSE 4.6 mph - N/A   Clear
1:55 AM 32.0 °F 27.5 °F 28.4 °F 87% 30.40 in 10.0 mi SSE 4.6 mph - N/A   Clear
2:15 AM 33.8 °F 30.8 °F 28.4 °F 81% 30.40 in 10.0 mi SSE 3.5 mph - N/A   Clear
2:35 AM 33.8 °F 30.8 °F 28.4 °F 81% 30.40 in 10.0 mi SSE 3.5 mph - N/A   Clear
2:55 AM 32.0 °F 28.7 °F 28.4 °F 87% 30.39 in 10.0 mi SE 3.5 mph - N/A   Clear
3:15 AM 32.0 °F 27.5 °F 28.4 °F 87% 30.39 in 10.0 mi SSE 4.6 mph - N/A   Clear
3:35 AM 32.0 °F 27.5 °F 28.4 °F 87% 30.38 in 10.0 mi SE 4.6 mph - N/A   Clear
3:55 AM 32.0 °F 28.7 °F 28.4 °F 87% 30.37 in 10.0 mi SSE 3.5 mph - N/A   Clear
4:15 AM 33.8 °F 30.8 °F 28.4 °F 81% 30.36 in 10.0 mi South 3.5 mph - N/A   Clear
4:35 AM 33.8 °F - 28.4 °F 81% 30.35 in 10.0 mi Calm Calm - N/A   Clear
4:55 AM 32.0 °F - 28.4 °F 87% 30.35 in 10.0 mi Calm Calm - N/A   Clear
5:15 AM 33.8 °F 29.6 °F 28.4 °F 81% 30.34 in 10.0 mi SE 4.6 mph - N/A   Clear
5:35 AM 33.8 °F 29.6 °F 28.4 °F 81% 30.34 in 10.0 mi SE 4.6 mph - N/A   Clear
5:55 AM 33.8 °F 28.6 °F 28.4 °F 81% 30.33 in 10.0 mi SE 5.8 mph - N/A   Clear
6:15 AM 32.0 °F - 28.4 °F 87% 30.32 in 10.0 mi Calm Calm - N/A   Clear
6:35 AM 33.8 °F 29.6 °F 28.4 °F 81% 30.32 in 10.0 mi SSE 4.6 mph - N/A   Clear
6:55 AM 33.8 °F 30.8 °F 28.4 °F 81% 30.32 in 10.0 mi South 3.5 mph - N/A   Unknown
7:15 AM 33.8 °F 28.6 °F 28.4 °F 81% 30.32 in 10.0 mi South 5.8 mph - N/A   Clear
7:35 AM 33.8 °F 29.6 °F 28.4 °F 81% 30.31 in 10.0 mi South 4.6 mph - N/A   Clear
8:15 AM 33.8 °F 29.6 °F 28.4 °F 81% 30.30 in 10.0 mi SSE 4.6 mph - N/A   Clear
8:35 AM 35.6 °F 30.7 °F 28.4 °F 75% 30.30 in 10.0 mi SSE 5.8 mph - N/A   Clear
8:55 AM 37.4 °F 29.3 °F 30.2 °F 75% 30.29 in 10.0 mi South 12.7 mph - N/A   Clear
9:15 AM 41.0 °F 33.1 °F 30.2 °F 65% 30.28 in 10.0 mi SSW 15.0 mph 21.9 mph N/A   Clear
9:35 AM 41.0 °F 32.2 °F 30.2 °F 65% 30.28 in 10.0 mi SSW 18.4 mph 26.5 mph N/A   Clear
9:55 AM 42.8 °F 34.0 °F 30.2 °F 61% 30.27 in 10.0 mi SSW 20.7 mph 28.8 mph N/A   Clear
10:15 AM 42.8 °F 35.4 °F 30.2 °F 61% 30.26 in 10.0 mi SSW 15.0 mph 28.8 mph N/A   Clear
10:35 AM 44.6 °F 36.9 °F 30.2 °F 57% 30.25 in 10.0 mi SSW 18.4 mph 29.9 mph N/A   Clear
10:55 AM 46.4 °F 39.0 °F 32.0 °F 57% 30.23 in 10.0 mi SSW 19.6 mph 24.2 mph N/A   Clear
11:15 AM 48.2 °F - 32.0 °F 54% 30.21 in 10.0 mi SSW 15.0 mph 27.6 mph N/A   Clear
11:55 AM 51.8 °F - 32.0 °F 47% 30.18 in 10.0 mi SSW 15.0 mph 26.5 mph N/A   Clear
12:15 PM 51.8 °F - 30.2 °F 44% 30.16 in 10.0 mi SSW 18.4 mph 28.8 mph N/A   Clear
12:35 PM 53.6 °F - 30.2 °F 41% 30.14 in 10.0 mi SSW 13.8 mph 23.0 mph N/A   Clear
12:55 PM 55.4 °F - 30.2 °F 38% 30.13 in 10.0 mi SSW 21.9 mph 34.5 mph N/A   Clear
1:15 PM 55.4 °F - 30.2 °F 38% 30.11 in 10.0 mi SSW 17.3 mph 34.5 mph N/A   Clear
1:35 PM 55.4 °F - 30.2 °F 38% 30.10 in 10.0 mi SSW 24.2 mph 34.5 mph N/A   Clear
1:55 PM 55.4 °F - 28.4 °F 36% 30.09 in 10.0 mi SW 25.3 mph 33.4 mph N/A   Clear
2:15 PM 55.4 °F - 30.2 °F 38% 30.08 in 10.0 mi SSW 25.3 mph 31.1 mph N/A   Clear
2:35 PM 55.4 °F - 30.2 °F 38% 30.07 in 10.0 mi SW 25.3 mph 38.0 mph N/A   Clear
2:55 PM 55.4 °F - 30.2 °F 38% 30.06 in 10.0 mi SSW 20.7 mph 33.4 mph N/A   Clear
3:15 PM 55.4 °F - 30.2 °F 38% 30.05 in 10.0 mi SSW 26.5 mph 29.9 mph N/A   Clear
3:35 PM 55.4 °F - 30.2 °F 38% 30.05 in 10.0 mi SW 21.9 mph 28.8 mph N/A   Clear
3:55 PM 55.4 °F - 30.2 °F 38% 30.04 in 10.0 mi SSW 15.0 mph 26.5 mph N/A   Clear
4:15 PM 55.4 °F - 30.2 °F 38% 30.03 in 10.0 mi SSW 19.6 mph 33.4 mph N/A   Clear
4:35 PM 55.4 °F - 30.2 °F 38% 30.05 in 10.0 mi SSW 13.8 mph 25.3 mph N/A   Clear
4:55 PM 55.4 °F - 30.2 °F 38% 30.05 in 10.0 mi SSW 9.2 mph 23.0 mph N/A   Clear
5:15 PM 53.6 °F - 30.2 °F 41% 30.05 in 10.0 mi SSW 9.2 mph - N/A   Clear
5:35 PM 51.8 °F - 32.0 °F 47% 30.05 in 10.0 mi South 10.4 mph 17.3 mph N/A   Unknown
5:55 PM 51.8 °F - 32.0 °F 47% 30.06 in 10.0 mi SSW 5.8 mph - N/A   Unknown
6:15 PM 51.8 °F - 32.0 °F 47% 30.06 in 10.0 mi South 5.8 mph - N/A   Unknown
6:55 PM 50.0 °F - 32.0 °F 50% 30.07 in 10.0 mi SSW 9.2 mph - N/A   Clear
7:15 PM 50.0 °F - 32.0 °F 50% 30.07 in 10.0 mi SSW 8.1 mph - N/A   Clear
7:35 PM 50.0 °F - 32.0 °F 50% 30.07 in 10.0 mi South 9.2 mph - N/A   Clear
7:55 PM 50.0 °F - 32.0 °F 50% 30.07 in 10.0 mi South 6.9 mph - N/A   Clear
8:15 PM 48.2 °F - 32.0 °F 54% 30.07 in 10.0 mi South 6.9 mph - N/A   Clear
8:55 PM 48.2 °F - 32.0 °F 54% 30.05 in 10.0 mi SSW 9.2 mph - N/A   Clear
9:15 PM 46.4 °F 41.5 °F 32.0 °F 57% 30.05 in 10.0 mi SSW 10.4 mph 16.1 mph N/A   Clear
9:35 PM 46.4 °F 41.1 °F 32.0 °F 57% 30.05 in 10.0 mi SSW 11.5 mph 18.4 mph N/A   Clear
10:15 PM 46.4 °F 42.4 °F 32.0 °F 57% 30.03 in 10.0 mi South 8.1 mph - N/A   Clear
10:35 PM 46.4 °F 42.4 °F 32.0 °F 57% 30.03 in 10.0 mi South 8.1 mph - N/A   Clear
10:55 PM 46.4 °F 42.9 °F 32.0 °F 57% 30.03 in 10.0 mi South 6.9 mph - N/A   Unknown
11:15 PM 46.4 °F 43.5 °F 32.0 °F 57% 30.02 in 10.0 mi South 5.8 mph - N/A   Clear
11:35 PM 46.4 °F 42.9 °F 32.0 °F 57% 30.02 in 10.0 mi South 6.9 mph - N/A   Clear
11:55 PM 46.4 °F 42.4 °F 32.0 °F 57% 30.02 in 10.0 mi South 8.1 mph - N/A   Clear